User: anonymous   Login
Location: Unspecified
(50.1700°N, 6.8600°E)
Time: 07:45:22
(UTC+00:00)
Language:

Cosmos 1302 Rocket - Orbit

View from above orbital plane
View from above orbital plane
View from above satellite
View from above satellite

Ground track
Ground track

The orbit data is extracted from the following two-line orbital elements,

1 12792U 81084B   19325.13769809 -.00000021  00000-0  20139-5 0  9999
2 12792  74.0296 202.5173 0014851 272.4310  87.5143 14.37557470  2507
Epoch (UTC): 21 November 2019 03:18:17
Eccentricity: 0.0014851
inclination: 74.0296°
perigee height: 756 km
apogee height: 777 km
right ascension of ascending node: 202.5173°
argument of perigee: 272.4310°
revolutions per day: 14.37557470
mean anomaly at epoch: 87.5143°
orbit number at epoch: 250

The dashed part of the orbit path shows where the satellite is in the earth's shadow,  

DLR